[[{"header":{"parameterUnit":"m.s-1","parameterCategory":1,"la1":30.2991,"la2":30.254,"lo1":-89.0895,"lo2":-89.0444,"dy":0.0017,"dx":0.0017,"nx":28,"ny":28,"refTime":"2023-08-19T03:00:00:Z","depth":0,"parameterNumber":2,"parameterNumberName":"U-component_of_WINDS"},"data":[0,0,0,0,0,0,0,0,0,0,0,0,0,0,0,0,0,0,0,0,0,0,0,0,0,0,0,0,0,0,0,0,0,0,0,0,0,0,0,0,0,0,0,0,0,0,0,0,0,0,0,0,0,0,0,0,0,0,2.9344,2.9344,0,2.9348,2.9349,2.9349,2.9291,2.9289,2.9288,2.9286,2.9291,2.9292,2.9294,0,0,0,0,0,0,0,0,0,0,0,0,0,2.9289,2.9291,2.9344,2.9344,2.9344,2.9348,2.9349,2.9349,2.9291,2.9289,2.9287,2.9286,2.929,2.9292,2.9294,0,0,0,0,0,0,0,0,0,0,0,0,0,2.9305,2.9291,2.9344,2.9316,2.9314,2.9348,2.9349,2.9349,2.9292,2.9289,2.9287,2.9285,2.9289,2.9292,2.9294,2.9356,0,0,2.9301,2.9302,0,0,0,0,0,0,0,0,2.9305,2.9307,2.932,2.9318,2.9316,2.9317,2.9331,2.9351,2.9292,2.93,2.9286,2.9284,2.9301,2.9302,2.9308,2.9356,2.9356,2.9301,2.9303,2.9304,2.9305,0,0,0,0,0,0,0,2.9304,2.9307,2.9346,2.9321,2.9318,2.9304,2.9304,2.9334,2.9314,2.9299,2.9295,2.9296,2.9299,2.9306,2.9308,2.9356,2.9301,2.9304,2.9305,2.9306,2.9458,2.946,0,0,0,0,0,0,2.9306,2.9306,2.9346,2.9346,2.9304,2.9307,2.9307,2.9319,2.9313,2.931,2.9298,2.9294,2.9303,2.9305,2.9308,2.9382,2.9304,2.9306,2.9307,2.9455,2.9458,2.9461,0,0,0,0,0,0,2.9305,2.931,2.9346,2.9325,2.9329,2.9311,2.9325,2.932,2.9327,2.9313,2.9309,2.9309,2.9302,2.9305,2.9345,2.9381,2.9307,2.9309,2.9452,2.9456,2.946,2.9528,0,0,0,0,0,0,2.9304,2.931,2.9332,2.9326,2.933,2.9382,2.9327,2.9322,2.9331,2.9325,2.9321,2.9319,2.93,2.9342,2.9347,2.9383,2.9311,2.9449,2.9454,2.9459,2.9523,2.9534,2.9544,0,0,0,0,0,2.9302,2.9351,2.9334,2.9339,2.9357,2.9384,2.9386,2.9364,2.9334,2.9357,2.9349,2.9319,2.9376,2.9346,2.9352,2.9389,2.9446,2.9452,2.9458,2.9518,2.9532,2.9543,0,0,0,0,0,0,2.936,2.9349,2.933,2.9378,2.9383,2.9374,2.9402,2.9379,2.9391,2.9385,2.9357,2.9357,2.9402,2.9399,2.9366,2.945,2.9406,2.9414,2.945,2.9463,2.9473,2.9473,2.9313,0,0,0,0,0,2.9379,2.9401,2.939,2.9434,2.9437,2.942,2.943,2.9413,2.9416,2.9418,2.9412,2.9417,2.9436,2.9449,2.9466,2.9523,2.9522,2.9551,2.9561,2.957,2.9577,2.9609,2.9622,2.9481,2.9481,2.948,0,0,2.9417,2.9414,2.943,2.9446,2.9447,2.9472,2.9421,2.9449,2.9467,2.9422,2.946,2.9457,2.946,2.951,2.9531,2.9509,2.9616,2.9578,2.9585,2.9586,2.9616,2.963,2.9642,2.9485,2.9484,2.9483,0,0,2.95,2.9499,2.9537,2.954,2.9543,2.9532,2.9541,2.9537,2.9533,2.9572,2.9539,2.9561,2.9594,2.9599,2.9606,2.9695,2.9669,2.9702,2.9756,2.9788,2.9799,2.9809,2.9842,2.9854,2.9708,2.9708,2.9709,0,2.9547,2.9582,2.9559,2.9589,2.9598,2.956,2.9599,2.9603,2.9612,2.962,2.9595,2.9638,2.9638,2.9689,2.9711,2.9717,2.9728,2.9701,2.9799,2.9809,2.9818,2.9849,2.9862,2.9712,2.9712,2.9712,2.9711,0,2.9641,2.9667,2.9697,2.9707,2.972,2.9754,2.9737,2.9753,2.9736,2.9728,2.9769,2.9768,2.9785,2.9796,2.9779,2.9846,2.9832,2.9804,2.976,2.9836,2.9865,2.9877,2.9718,2.9717,2.9716,2.9715,0,0,2.9758,2.9758,2.9769,2.9775,2.9778,2.9797,2.9832,2.9849,2.9864,2.9873,2.9902,2.9933,2.9908,2.9916,2.9899,2.9927,3.0,2.9896,2.9895,2.9916,3.0077,3.0098,3.0112,2.9984,2.9986,2.9988,3.0077,0,2.9839,2.9897,2.9879,2.9937,2.9962,2.9928,2.9958,2.9964,2.9959,2.9979,2.9973,2.9996,2.996,2.9965,2.9992,2.9986,3.0032,2.9979,3.0011,3.0013,3.0011,3.0127,3.0149,3.0233,3.0088,3.009,3.0091,0,2.9941,2.9955,3.0017,3.0019,3.0028,3.0055,3.0072,3.0092,3.0099,3.0093,3.0104,3.0083,3.0118,3.0075,3.0124,3.0088,3.0101,3.01,3.0103,3.0105,3.0056,3.0133,3.0259,3.0272,3.0109,3.0107,3.0106,0,3.0022,3.0056,3.0098,3.0104,3.0107,3.0127,3.0129,3.0134,3.0147,3.0162,3.017,3.0189,3.0199,3.0215,3.02,3.0169,3.0253,3.0207,3.025,3.025,3.0268,3.0267,3.0398,3.0276,3.0275,3.0275,3.0275,0,3.0114,3.0154,3.0135,3.0161,3.0205,3.0185,3.0229,3.0227,3.0233,3.0259,3.0231,3.0256,3.0235,3.0259,3.0247,3.0291,3.0296,3.0293,3.0289,3.0295,3.0296,3.0303,3.0296,3.0279,3.0278,3.0277,3.0277,0,3.0211,3.02,3.0244,3.0244,3.0245,3.0278,3.0278,3.0303,3.0297,3.033,3.0337,3.0327,3.0354,3.0342,3.0369,3.0362,3.0419,3.0407,3.0416,3.0413,3.0457,3.0454,3.0598,3.0616,3.0481,3.0483,3.0484,0,3.0271,3.0301,3.0305,3.0321,3.0325,3.0351,3.0365,3.0347,3.0363,3.0375,3.0399,3.0424,3.0443,3.0488,3.0484,3.0506,3.0495,3.0544,3.0498,3.0504,3.0497,3.0495,3.0499,3.0553,3.0555,3.0556,3.0557,0,3.0379,3.0373,3.0393,3.0414,3.0432,3.0446,3.0459,3.0474,3.0457,3.0476,3.0504,3.0519,3.0549,3.0574,3.0595,3.0597,3.0575,3.0572,3.0583,3.0589,3.0594,3.0593,3.0442,3.0568,3.0567,3.0566,3.0566,3.0565,3.0459,3.0485,3.0493,3.0519,3.0527,3.054,3.0564,3.0562,3.0585,3.0608,3.0597,3.063,3.0639,3.0664,3.0671,3.0697,3.0678,3.0694,3.0698,3.0702,3.0708,3.059,3.0701,3.07,3.07,3.07,3.0699,0,3.0566,3.0571,3.0595,3.0614,3.0635,3.0613,3.0627,3.0646,3.0675,3.0686,3.0706,3.074,3.0765,3.0765,3.0789,3.081,3.0801,3.0817,3.0815,3.0817,3.0724,3.0712,3.0825,3.0825,3.0825,3.0825,3.0825,3.0825,3.0625,3.0669,3.0664,3.0713,3.0717,3.0749,3.076,3.0773,3.0781,3.082,3.0842,3.0842,3.0849,3.0874,3.0897,3.0896,3.0907,3.0927,3.0923,3.0836,3.0823,3.0811,3.08,3.093,3.093,3.1014,3.1015,3.1016]},{"header":{"parameterUnit":"m.s-1","parameterCategory":1,"la1":30.2991,"la2":30.254,"lo1":-89.0895,"lo2":-89.0444,"dy":0.0017,"dx":0.0017,"nx":28,"ny":28,"refTime":"2023-08-19T03:00:00:Z","depth":0,"parameterNumber":3,"parameterNumberName":"V-component_of_WINDS"},"data":[0,0,0,0,0,0,0,0,0,0,0,0,0,0,0,0,0,0,0,0,0,0,0,0,0,0,0,0,0,0,0,0,0,0,0,0,0,0,0,0,0,0,0,0,0,0,0,0,0,0,0,0,0,0,0,0,0,0,-0.7528,-0.7528,0,-0.752,-0.752,-0.752,-0.7512,-0.7512,-0.7512,-0.7512,-0.7503,-0.7503,-0.7502,0,0,0,0,0,0,0,0,0,0,0,0,0,-0.7539,-0.7539,-0.7528,-0.7528,-0.7528,-0.752,-0.752,-0.752,-0.7512,-0.7512,-0.7512,-0.7512,-0.7503,-0.7503,-0.7502,0,0,0,0,0,0,0,0,0,0,0,0,0,-0.7533,-0.7539,-0.7528,-0.7523,-0.7523,-0.752,-0.752,-0.752,-0.7512,-0.7512,-0.7512,-0.7512,-0.7503,-0.7503,-0.7502,-0.7503,0,0,-0.7502,-0.7501,0,0,0,0,0,0,0,0,-0.7533,-0.7532,-0.7524,-0.7524,-0.7523,-0.7517,-0.752,-0.7514,-0.7512,-0.7516,-0.7512,-0.7512,-0.7508,-0.7507,-0.7506,-0.7503,-0.7502,-0.7502,-0.7501,-0.7501,-0.7501,0,0,0,0,0,0,0,-0.7533,-0.7533,-0.7525,-0.7524,-0.7523,-0.7522,-0.7521,-0.7519,-0.7513,-0.7516,-0.7515,-0.7515,-0.7507,-0.7506,-0.7505,-0.7502,-0.7502,-0.7501,-0.7501,-0.7501,-0.7502,-0.7502,0,0,0,0,0,0,-0.7535,-0.7533,-0.7525,-0.7525,-0.7528,-0.7522,-0.7521,-0.7519,-0.7513,-0.7512,-0.7515,-0.7514,-0.7506,-0.7506,-0.7505,-0.7507,-0.7501,-0.7501,-0.7501,-0.7502,-0.7502,-0.7502,0,0,0,0,0,0,-0.7535,-0.7534,-0.7525,-0.7529,-0.7527,-0.7522,-0.752,-0.7519,-0.7518,-0.7512,-0.7511,-0.7514,-0.7506,-0.7505,-0.7504,-0.7506,-0.7501,-0.7501,-0.7501,-0.7502,-0.7502,-0.751,0,0,0,0,0,0,-0.7535,-0.7534,-0.7534,-0.7529,-0.7527,-0.7524,-0.752,-0.7519,-0.7517,-0.7517,-0.7511,-0.751,-0.7506,-0.7505,-0.7504,-0.7506,-0.75,-0.7501,-0.7502,-0.7502,-0.7509,-0.751,-0.7511,0,0,0,0,0,-0.7536,-0.7536,-0.7534,-0.7533,-0.7527,-0.7525,-0.7524,-0.7519,-0.7517,-0.7517,-0.7514,-0.751,-0.7506,-0.7505,-0.7504,-0.7506,-0.7501,-0.7502,-0.7502,-0.7509,-0.751,-0.7511,0,0,0,0,0,0,-0.754,-0.7535,-0.7533,-0.7531,-0.7529,-0.7523,-0.7523,-0.752,-0.7518,-0.7517,-0.7512,-0.7511,-0.7511,-0.7508,-0.7506,-0.7507,-0.7503,-0.7504,-0.7509,-0.751,-0.7511,-0.7511,-0.75,0,0,0,0,0,-0.7541,-0.754,-0.7535,-0.7534,-0.7533,-0.7529,-0.7527,-0.7524,-0.7521,-0.752,-0.7516,-0.7513,-0.7512,-0.7511,-0.7509,-0.7509,-0.7508,-0.751,-0.7511,-0.7512,-0.7512,-0.7514,-0.7515,-0.7503,-0.7503,-0.7503,0,0,-0.7543,-0.754,-0.7539,-0.7535,-0.7533,-0.7532,-0.7528,-0.7526,-0.7526,-0.752,-0.7519,-0.7516,-0.7513,-0.7513,-0.7513,-0.7511,-0.7515,-0.7512,-0.7513,-0.7513,-0.7514,-0.7515,-0.7516,-0.7504,-0.7504,-0.7504,0,0,-0.7546,-0.7543,-0.7543,-0.7541,-0.7538,-0.7535,-0.7535,-0.7531,-0.753,-0.7529,-0.7525,-0.7524,-0.7521,-0.7519,-0.7518,-0.7523,-0.752,-0.7523,-0.7527,-0.7529,-0.753,-0.7531,-0.7533,-0.7534,-0.7523,-0.7523,-0.7523,0,-0.7548,-0.7547,-0.7543,-0.7543,-0.7542,-0.7537,-0.7538,-0.7536,-0.7532,-0.7532,-0.753,-0.7527,-0.7524,-0.7525,-0.7526,-0.7525,-0.7526,-0.7523,-0.753,-0.7531,-0.7531,-0.7534,-0.7535,-0.7523,-0.7523,-0.7523,-0.7523,0,-0.7551,-0.755,-0.755,-0.7548,-0.7547,-0.7546,-0.7543,-0.7543,-0.7541,-0.7539,-0.7539,-0.7536,-0.7534,-0.7534,-0.7531,-0.7535,-0.7534,-0.7531,-0.7527,-0.7533,-0.7535,-0.7536,-0.7524,-0.7524,-0.7524,-0.7524,0,0,-0.7554,-0.7552,-0.7552,-0.7552,-0.7549,-0.7548,-0.7549,-0.7548,-0.7548,-0.7546,-0.7547,-0.7546,-0.7544,-0.7542,-0.754,-0.7541,-0.7547,-0.7538,-0.7538,-0.7541,-0.7553,-0.7555,-0.7556,-0.7545,-0.7546,-0.7546,-0.7553,0,-0.7557,-0.7558,-0.7556,-0.7557,-0.7557,-0.7554,-0.7555,-0.7554,-0.7552,-0.7552,-0.7551,-0.755,-0.7547,-0.7547,-0.7548,-0.7546,-0.755,-0.7546,-0.7547,-0.7547,-0.7548,-0.7557,-0.7559,-0.7566,-0.7554,-0.7554,-0.7554,0,-0.756,-0.756,-0.7561,-0.7561,-0.756,-0.7561,-0.7561,-0.7561,-0.756,-0.7559,-0.7559,-0.7557,-0.7558,-0.7555,-0.7557,-0.7555,-0.7555,-0.7555,-0.7555,-0.7555,-0.7551,-0.7558,-0.7568,-0.757,-0.7556,-0.7555,-0.7555,0,-0.7564,-0.7564,-0.7565,-0.7565,-0.7564,-0.7565,-0.7564,-0.7563,-0.7564,-0.7564,-0.7564,-0.7564,-0.7564,-0.7565,-0.7563,-0.7561,-0.7566,-0.7562,-0.7566,-0.7566,-0.7567,-0.7567,-0.7578,-0.7567,-0.7567,-0.7567,-0.7567,0,-0.7567,-0.7568,-0.7567,-0.7568,-0.757,-0.7568,-0.757,-0.7569,-0.7569,-0.7571,-0.7568,-0.7569,-0.7567,-0.7568,-0.7567,-0.757,-0.757,-0.757,-0.7569,-0.757,-0.757,-0.757,-0.757,-0.7567,-0.7567,-0.7567,-0.7567,0,-0.7571,-0.757,-0.7572,-0.7572,-0.7572,-0.7573,-0.7573,-0.7574,-0.7574,-0.7576,-0.7576,-0.7575,-0.7577,-0.7575,-0.7576,-0.7576,-0.758,-0.7579,-0.758,-0.758,-0.7584,-0.7584,-0.7596,-0.7598,-0.7585,-0.7585,-0.7585,0,-0.7573,-0.7574,-0.7575,-0.7576,-0.7576,-0.7577,-0.7578,-0.7577,-0.7578,-0.7579,-0.758,-0.7582,-0.7583,-0.7587,-0.7586,-0.7588,-0.7587,-0.7591,-0.7587,-0.7588,-0.7588,-0.7588,-0.7589,-0.7592,-0.7592,-0.7592,-0.7592,0,-0.7577,-0.7578,-0.7579,-0.7581,-0.7582,-0.7583,-0.7584,-0.7585,-0.7584,-0.7586,-0.7588,-0.7589,-0.7592,-0.7594,-0.7596,-0.7596,-0.7594,-0.7594,-0.7595,-0.7595,-0.7597,-0.7597,-0.7583,-0.7593,-0.7593,-0.7593,-0.7593,-0.7593,-0.7581,-0.7583,-0.7584,-0.7586,-0.7587,-0.7589,-0.759,-0.7591,-0.7593,-0.7595,-0.7595,-0.7598,-0.7599,-0.7601,-0.7602,-0.7605,-0.7603,-0.7605,-0.7605,-0.7605,-0.7606,-0.7596,-0.7605,-0.7605,-0.7605,-0.7605,-0.7605,0,-0.7586,-0.7587,-0.7589,-0.7591,-0.7593,-0.7593,-0.7594,-0.7596,-0.7599,-0.7601,-0.7603,-0.7606,-0.7609,-0.761,-0.7613,-0.7615,-0.7615,-0.7616,-0.7616,-0.7616,-0.7607,-0.7606,-0.7616,-0.7616,-0.7616,-0.7616,-0.7616,-0.7616,-0.7588,-0.7592,-0.7592,-0.7597,-0.7598,-0.7602,-0.7603,-0.7605,-0.7606,-0.7611,-0.7614,-0.7614,-0.7616,-0.762,-0.7623,-0.7623,-0.7624,-0.7626,-0.7626,-0.7618,-0.7617,-0.7615,-0.7615,-0.7626,-0.7626,-0.7635,-0.7635,-0.7635]}]]